TimeCST,TemperatureF,Dew PointF,Humidity,Sea Level PressureIn,VisibilityMPH,Wind Direction,Wind SpeedMPH,Gust SpeedMPH,PrecipitationIn,Events,Conditions,WindDirDegrees,DateUTC
12:15 AM,30.9,30.9,100,30.00,-9999.0,East,6.9,-,0.01,,Overcast,80,2013-12-14 06:15:00
12:35 AM,30.9,30.9,100,29.99,-9999.0,ENE,8.1,-,0.01,,Overcast,70,2013-12-14 06:35:00
12:55 AM,31.1,31.1,100,29.98,-9999.0,ENE,8.1,-,0.02,,Overcast,70,2013-12-14 06:55:00
1:15 AM,31.1,31.1,100,29.97,-9999.0,East,8.1,-,0.01,,Overcast,80,2013-12-14 07:15:00
1:35 AM,31.6,31.6,100,29.97,-9999.0,East,5.8,-,0.01,,Overcast,100,2013-12-14 07:35:00
1:55 AM,31.5,31.5,100,29.98,-9999.0,East,3.5,-,0.01,,Overcast,80,2013-12-14 07:55:00
2:15 AM,31.1,31.1,100,29.96,-9999.0,ENE,6.9,-,0.02,,Overcast,60,2013-12-14 08:15:00
2:35 AM,31.1,31.1,100,29.95,-9999.0,NE,8.1,-,0.04,,Overcast,50,2013-12-14 08:35:00
2:55 AM,31.1,31.1,100,29.96,-9999.0,ENE,6.9,-,0.06,,Overcast,60,2013-12-14 08:55:00
3:15 AM,31.1,31.1,100,29.96,-9999.0,ENE,8.1,-,0.01,,Overcast,70,2013-12-14 09:15:00
3:35 AM,31.1,31.1,100,29.95,-9999.0,ENE,6.9,-,0.02,,Overcast,70,2013-12-14 09:35:00
3:55 AM,31.1,31.1,100,29.95,-9999.0,ENE,6.9,-,0.02,,Overcast,60,2013-12-14 09:55:00
4:15 AM,31.1,31.1,100,29.94,-9999.0,NE,9.2,-,N/A,,Overcast,50,2013-12-14 10:15:00
4:35 AM,31.1,31.1,100,29.92,-9999.0,NE,10.4,-,N/A,,Overcast,40,2013-12-14 10:35:00
4:55 AM,30.9,30.9,100,29.94,-9999.0,NE,9.2,-,N/A,,Overcast,40,2013-12-14 10:55:00
5:15 AM,30.9,30.9,100,29.94,-9999.0,NE,10.4,-,N/A,,Overcast,40,2013-12-14 11:15:00
5:35 AM,30.6,30.6,100,29.95,-9999.0,NE,10.4,-,N/A,,Overcast,40,2013-12-14 11:35:00
5:55 AM,30.2,30.2,100,29.95,-9999.0,NE,11.5,-,N/A,,Overcast,40,2013-12-14 11:55:00
6:15 AM,29.8,29.8,100,29.95,-9999.0,NNE,11.5,-,N/A,,Overcast,30,2013-12-14 12:15:00
6:35 AM,29.3,29.1,99,29.95,-9999.0,NNE,10.4,-,N/A,,Overcast,30,2013-12-14 12:35:00
6:55 AM,29.1,28.9,99,29.95,-9999.0,NNE,11.5,-,N/A,,Unknown,30,2013-12-14 12:55:00
7:15 AM,28.8,28.4,99,29.96,-9999.0,North,11.5,-,N/A,,Unknown,10,2013-12-14 13:15:00
7:35 AM,28.4,28.2,99,29.96,-9999.0,North,12.7,-,N/A,,Unknown,10,2013-12-14 13:35:00
7:55 AM,28.4,28.0,99,29.96,-9999.0,NNE,11.5,-,N/A,,Unknown,20,2013-12-14 13:55:00
8:15 AM,28.4,28.2,99,29.97,-9999.0,North,11.5,-,N/A,,Overcast,10,2013-12-14 14:15:00
8:35 AM,28.4,28.2,99,29.97,-9999.0,North,11.5,-,N/A,,Mostly Cloudy,10,2013-12-14 14:35:00
8:55 AM,28.8,28.4,99,29.98,-9999.0,North,11.5,-,N/A,,Unknown,10,2013-12-14 14:55:00
9:15 AM,29.1,28.4,97,29.99,-9999.0,North,13.8,-,N/A,,Unknown,360,2013-12-14 15:15:00
9:35 AM,29.3,28.6,97,29.99,-9999.0,North,12.7,-,0.01,,Unknown,10,2013-12-14 15:35:00
9:55 AM,29.3,28.8,98,29.99,-9999.0,North,12.7,-,0.01,,Unknown,360,2013-12-14 15:55:00
10:15 AM,29.3,28.2,96,30.00,-9999.0,North,15.0,-,N/A,,Unknown,360,2013-12-14 16:15:00
10:35 AM,29.1,27.9,95,29.99,-9999.0,North,12.7,-,N/A,,Mostly Cloudy,360,2013-12-14 16:35:00
10:55 AM,28.9,27.9,96,29.99,-9999.0,North,13.8,-,N/A,,Overcast,360,2013-12-14 16:55:00
11:15 AM,29.1,27.9,95,29.99,-9999.0,North,13.8,-,N/A,,Overcast,360,2013-12-14 17:15:00
11:35 AM,29.3,27.9,94,29.99,-9999.0,North,13.8,-,N/A,,Overcast,350,2013-12-14 17:35:00
11:55 AM,29.3,27.9,94,29.98,-9999.0,North,16.1,-,N/A,,Overcast,360,2013-12-14 17:55:00
12:15 PM,29.3,27.9,94,29.98,-9999.0,North,15.0,19.6,N/A,,Overcast,350,2013-12-14 18:15:00
12:35 PM,29.3,27.9,94,29.98,-9999.0,NNW,15.0,-,N/A,,Overcast,340,2013-12-14 18:35:00
12:55 PM,28.4,27.1,95,29.98,-9999.0,NNW,18.4,-,N/A,,Overcast,340,2013-12-14 18:55:00
1:15 PM,28.4,26.6,93,29.98,-9999.0,NNW,15.0,-,N/A,,Overcast,340,2013-12-14 19:15:00
1:35 PM,28.4,26.6,93,29.98,-9999.0,NNW,18.4,23.0,N/A,,Overcast,340,2013-12-14 19:35:00
1:55 PM,28.4,26.6,93,29.98,-9999.0,NNW,17.3,-,N/A,,Overcast,340,2013-12-14 19:55:00
2:15 PM,28.2,26.2,92,29.99,-9999.0,NW,15.0,-,N/A,,Overcast,320,2013-12-14 20:15:00
2:35 PM,27.7,26.2,94,30.00,-9999.0,NW,16.1,-,N/A,,Overcast,320,2013-12-14 20:35:00
2:55 PM,27.3,25.5,93,30.01,-9999.0,NW,18.4,-,N/A,,Overcast,320,2013-12-14 20:55:00
3:15 PM,27.1,25.2,92,30.02,-9999.0,NNW,17.3,-,N/A,,Overcast,330,2013-12-14 21:15:00
3:35 PM,27.0,25.2,93,30.03,-9999.0,NNW,17.3,-,N/A,,Overcast,330,2013-12-14 21:35:00
3:55 PM,27.0,25.2,93,30.03,-9999.0,NNW,16.1,-,N/A,,Overcast,330,2013-12-14 21:55:00
4:15 PM,26.4,24.3,92,30.04,-9999.0,NNW,16.1,23.0,N/A,,Overcast,330,2013-12-14 22:15:00
4:35 PM,26.2,23.9,91,30.05,-9999.0,NW,17.3,-,N/A,,Overcast,320,2013-12-14 22:35:00
4:55 PM,26.1,23.7,91,30.06,-9999.0,NW,15.0,-,N/A,,Overcast,320,2013-12-14 22:55:00
5:15 PM,25.5,23.0,90,30.06,-9999.0,NW,13.8,-,N/A,,Overcast,310,2013-12-14 23:15:00
5:35 PM,25.2,22.1,88,30.07,-9999.0,NW,12.7,-,N/A,,Overcast,320,2013-12-14 23:35:00
5:55 PM,25.2,21.9,87,30.07,-9999.0,NW,12.7,-,N/A,,Overcast,320,2013-12-14 23:55:00
6:15 PM,24.4,22.1,91,30.08,-9999.0,WNW,12.7,-,N/A,,Overcast,300,2013-12-15 00:15:00
6:35 PM,24.6,22.3,91,30.08,-9999.0,WNW,15.0,-,N/A,,Unknown,300,2013-12-15 00:35:00
6:55 PM,23.9,21.9,92,30.10,-9999.0,WNW,16.1,-,N/A,,Unknown,300,2013-12-15 00:55:00
7:15 PM,23.7,21.2,90,30.11,-9999.0,NW,17.3,-,N/A,,Unknown,310,2013-12-15 01:15:00
7:35 PM,23.5,21.2,91,30.11,-9999.0,WNW,16.1,-,N/A,,Overcast,300,2013-12-15 01:35:00
7:55 PM,23.0,20.7,91,30.11,-9999.0,NW,17.3,-,N/A,,Unknown,310,2013-12-15 01:55:00
8:15 PM,22.8,20.3,90,30.12,-9999.0,WNW,13.8,-,N/A,,Overcast,300,2013-12-15 02:15:00
8:35 PM,22.6,19.9,89,30.12,-9999.0,WNW,13.8,-,N/A,,Unknown,300,2013-12-15 02:35:00
8:55 PM,22.5,19.6,89,30.12,-9999.0,WNW,13.8,-,N/A,,Unknown,300,2013-12-15 02:55:00
9:15 PM,22.1,19.2,89,30.12,-9999.0,WNW,17.3,-,N/A,,Overcast,300,2013-12-15 03:15:00
9:35 PM,21.9,19.0,89,30.12,-9999.0,WNW,18.4,-,N/A,,Overcast,300,2013-12-15 03:35:00
9:55 PM,21.2,18.5,89,30.12,-9999.0,WNW,17.3,-,N/A,,Overcast,300,2013-12-15 03:55:00
10:15 PM,21.2,18.9,91,30.12,-9999.0,WNW,13.8,-,N/A,,Overcast,290,2013-12-15 04:15:00
10:35 PM,21.0,18.5,90,30.12,-9999.0,West,18.4,23.0,N/A,,Overcast,280,2013-12-15 04:35:00
10:55 PM,19.2,16.7,90,30.13,-9999.0,WNW,13.8,-,N/A,,Mostly Cloudy,290,2013-12-15 04:55:00
11:15 PM,18.1,15.6,90,30.13,-9999.0,WNW,17.3,-,N/A,,Unknown,290,2013-12-15 05:15:00
11:35 PM,16.5,13.5,88,30.13,-9999.0,West,15.0,-,N/A,,Unknown,280,2013-12-15 05:35:00
11:55 PM,15.6,12.2,86,30.13,-9999.0,West,13.8,-,N/A,,Unknown,280,2013-12-15 05:55:00